Regional Weather Roundup
Issued by NWS Boston, MA

Current Version | Previous Version | Text Only | Print | Product List | Glossary Off
Versions: 1 2 3 4 5 6 7 8 9 10 11 12 13 14 15 16 17 18 19 20 21 22 23 24 25 26 27 28
000 ASUS41 KBOX 172110 RWRBOX REGIONAL WEATHER ROUNDUP NATIONAL WEATHER SERVICE TAUNTON MA 500 PM EDT TUE OCT 17 2017 NOTE: "FAIR" INDICATES FEW OR NO CLOUDS BELOW 12,000 FEET WITH NO SIGNIFICANT WEATHER AND/OR OBSTRUCTIONS TO VISIBILITY. MAZALL-172200- EASTERN MASSACHUSETTS CITY SKY/WX TMP DP RH WIND PRES REMARKS BOSTON PTCLDY 56 27 32 SW10 30.21F BEVERLY CLEAR 56 29 35 SW6 30.20F LAWRENCE CLEAR 58 31 35 SW9 30.21F BEDFORD CLEAR 56 26 31 SW7 30.19F BLUE HILL N/A 54 27 35 SW8 30.20F NORWOOD CLEAR 59 29 31 S6 30.21F MARSHFIELD CLEAR 54 37 54 S8 30.22F PLYMOUTH CLEAR 56 31 38 SW7 30.23S TAUNTON CLEAR 57 30 35 SW5 30.23S NEW BEDFORD CLEAR 54 36 50 S8 30.23S $$ MAZALL-172200- CAPE COD AND THE ISLANDS CITY SKY/WX TMP DP RH WIND PRES REMARKS FALMOUTH CLEAR 54 39 58 S9 30.24F HYANNIS CLEAR 53 37 54 SE3 30.23F CHATHAM CLEAR 52 37 56 CALM 30.25F PROVINCETOWN CLEAR 51 35 54 S5 30.24F NANTUCKET CLEAR 53 36 52 NW5 30.24F MARTHAS VNYRD CLEAR 53 39 59 S7 30.24F $$ MAZALL-172200- CENTRAL AND WESTERN MASSACHUSETTS CITY SKY/WX TMP DP RH WIND PRES REMARKS WORCESTER SUNNY 53 24 32 SW9 30.20F FITCHBURG CLEAR 59 30 33 SW6 30.21F ORANGE SUNNY 55 31 39 S9 30.20S SPRINGFIELD SUNNY 58 29 34 S10 30.20S WESTFIELD SUNNY 58 31 35 S8 30.20F NORTH ADAMS SUNNY 55 26 32 VRB6 30.19F PITTSFIELD SUNNY 53 25 33 SW5 30.19F $$ RIZALL-172200- RHODE ISLAND CITY SKY/WX TMP DP RH WIND PRES REMARKS PROVIDENCE MOSUNNY 56 36 47 S10 30.24S NEWPORT CLEAR 52 35 52 S6 30.24S BLOCK ISLAND MOSUNNY 53 35 50 SW7 30.26S SMITHFIELD CLEAR 54 31 41 VRB3 30.22F WESTERLY SUNNY 56 36 47 S8 30.25F $$ CTZALL-172200- CONNECTICUT CITY SKY/WX TMP DP RH WIND PRES REMARKS BRADLEY INTL SUNNY 58 29 33 S9 30.21F HARTFORD SUNNY 58 31 35 SE7 30.22F BRIDGEPORT SUNNY 58 35 42 SW10 30.24F DANBURY SUNNY 58 29 33 SW8 30.24F GROTON SUNNY 54 36 50 SW9 30.24F NEW HAVEN SUNNY 56 38 50 SW12 30.25F CHESTER FAIR 55 36 47 SW7 30.24F MERIDEN SUNNY 57 32 38 S7 30.23F WILLIMANTIC SUNNY 58 28 32 VRB3 30.23F OXFORD SUNNY 56 29 35 VRB3 30.23F $$ MEZ002-015-021-024-NHZ003-005-008-011-012-014-VTZ005-008-172200- NORTHERN NEW ENGLAND CITY SKY/WX TMP DP RH WIND PRES REMARKS PORTLAND ME CLEAR 53 36 52 S8 30.17F BANGOR ME PTCLDY 53 29 39 SW6 30.14F CONCORD NH CLEAR 57 30 35 SW7 30.18S MANCHESTER NH CLEAR 57 28 33 W7 30.17F NASHUA NH CLEAR 56 29 35 W3 30.20S PORTSMOUTH NH CLEAR 56 30 37 SW8 30.17F JAFFREY NH CLEAR 54 29 38 S7 30.19S KEENE NH SUNNY 58 29 33 S6 30.19F BURLINGTON VT MOSUNNY 56 30 37 S12 30.10F MT. WASHINGTON PTCLDY 27 18 69 W30 N/A WCI 10 $$ NYZ052-076-172200- EASTERN NEW YORK CITY SKY/WX TMP DP RH WIND PRES REMARKS ALBANY SUNNY 56 31 38 S8 30.20F NEW YORK CITY SUNNY 60 29 30 SW6 30.24F $$ ANZALL-172200- MARINE OBSERVATIONS STATION/POSITION TIME TEMP WIND PRES VSBY WAVE AIR SEA DIR/SP/G HT/PER (UTC) (F) (DEG/KT/KT) (MB) (MI) (FT/S) BOSTON BUOY 2050 52 60 160/ 12/ 14 1022.8F 2/ 7 BUZZARDS BAY 2000 52 210/ 7/ 8 1024.9F NANTUCKET SOUND 1950 52 61 360/ 4/ 6 1024.5 1/ 4 MASS BAY-STELLWA 2004 53 60 200/ 10/ 12 1022.6F 3/ 5 ISLE OF SHOALS 2000 52 180/ 14/ 15 1022.4F S OF BLOCK IS NOT AVBL $$ ......................KEY......................... SKY/WX - SKY CONDITION/PRESENT WEATHER TMP - TEMPERATURE IN FAHRENHEIT DWPT - DEWPOINT IN FAHRENHEIT RH - RELATIVE HUMIDITY IN PERCENT WIND - DIRECTION AND SPEED IN MPH PRES - MEAN SEA LEVEL PRESSURE IN INCHES OF HG WCI - WIND CHILL INDEX VSB - VISIBILITY IN MILES HX - HEAT INDEX TC - TEMPERATURE IN CELSIUS VRB - VARIABLE WIND DIRECTION N/A - NOT AVAILABLE

USA.gov is the U.S. government's official web portal to all federal, state and local government web resources and services.